• In Hungary
  • List of Countries
  • For 7 days
  • Water Temperature
  • Satellite Maps
  • Weather Map
  • News
  • Weather Widgets
  • user-avatar
    Login

    Hourly Weather Sun City

    Today, 22 January, Monday

    Time Temperature Precipitation Wind Pressure Humidity
    00:00 +8°C° 0 mm 2 mps 737 mmHg 33%
    01:00 +8°C° 0 mm 2 mps 737 mmHg 34%
    02:00 +8°C° 0 mm 2 mps 737 mmHg 34%
    03:00 +8°C° 0 mm 2 mps 737 mmHg 34%
    04:00 +8°C° 0 mm 2 mps 736 mmHg 35%
    05:00 +7°C° 0 mm 2 mps 736 mmHg 35%
    06:00 +7°C° 0 mm 2 mps 736 mmHg 35%
    07:00 +7°C° 0 mm 2 mps 737 mmHg 35%
    08:00 +7°C° 0 mm 2 mps 737 mmHg 34%
    09:00 +9°C° 0 mm 2 mps 737 mmHg 31%
    10:00 +10°C° 0 mm 2 mps 736 mmHg 27%
    11:00 +13°C° 0 mm 2 mps 736 mmHg 23%
    12:00 +14°C° 0 mm 1 mps 735 mmHg 20%
    13:00 +15°C° 0 mm 1 mps 735 mmHg 18%
    14:00 +16°C° 0 mm 1 mps 734 mmHg 16%
    15:00 +16°C° 0 mm 1 mps 733 mmHg 16%
    16:00 +18°C° 0 mm 1 mps 733 mmHg 16%
    17:00 +18°C° 0 mm 1 mps 733 mmHg 17%
    18:00 +16°C° 0 mm 2 mps 733 mmHg 18%
    19:00 +14°C° 0 mm 2 mps 734 mmHg 20%
    20:00 +13°C° 0 mm 2 mps 734 mmHg 21%
    21:00 +12°C° 0 mm 2 mps 734 mmHg 22%
    22:00 +12°C° 0 mm 2 mps 734 mmHg 23%
    23:00 +10°C° 0 mm 2 mps 734 mmHg 24%

    Tomorrow, 23 January, Tuesday

    Time Temperature Precipitation Wind Pressure Humidity
    00:00 +10°C° 0 mm 2 mps 734 mmHg 24%
    01:00 +9°C° 0 mm 3 mps 734 mmHg 25%
    02:00 +9°C° 0 mm 3 mps 734 mmHg 25%
    03:00 +9°C° 0 mm 3 mps 734 mmHg 25%
    04:00 +8°C° 0 mm 3 mps 734 mmHg 25%
    05:00 +8°C° 0 mm 3 mps 734 mmHg 25%
    06:00 +8°C° 0 mm 3 mps 734 mmHg 25%
    07:00 +8°C° 0 mm 3 mps 734 mmHg 25%
    08:00 +8°C° 0 mm 3 mps 735 mmHg 25%
    09:00 +10°C° 0 mm 3 mps 735 mmHg 22%
    10:00 +13°C° 0 mm 3 mps 735 mmHg 19%
    11:00 +16°C° 0 mm 3 mps 734 mmHg 15%
    12:00 +17°C° 0 mm 2 mps 734 mmHg 14%
    13:00 +19°C° 0 mm 2 mps 733 mmHg 12%
    14:00 +21°C° 0 mm 1 mps 733 mmHg 11%
    15:00 +21°C° 0 mm 1 mps 733 mmHg 13%
    16:00 +21°C° 0 mm 1 mps 733 mmHg 14%
    17:00 +21°C° 0 mm 1 mps 733 mmHg 16%
    18:00 +20°C° 0 mm 1 mps 733 mmHg 16%
    19:00 +17°C° 0 mm 2 mps 734 mmHg 16%
    20:00 +15°C° 0 mm 2 mps 734 mmHg 17%
    21:00 +15°C° 0 mm 2 mps 735 mmHg 18%
    22:00 +13°C° 0 mm 3 mps 735 mmHg 19%
    23:00 +13°C° 0 mm 3 mps 735 mmHg 20%

    Day after tomorrow, 24 January, Wednesday

    Time Temperature Precipitation Wind Pressure Humidity
    00:00 +12°C° 0 mm 3 mps 735 mmHg 21%
    01:00 +12°C° 0 mm 3 mps 735 mmHg 21%
    02:00 +11°C° 0 mm 3 mps 735 mmHg 22%
    03:00 +11°C° 0 mm 3 mps 735 mmHg 22%
    04:00 +11°C° 0 mm 3 mps 735 mmHg 23%
    05:00 +10°C° 0 mm 3 mps 734 mmHg 23%
    06:00 +10°C° 0 mm 3 mps 735 mmHg 24%
    07:00 +10°C° 0 mm 3 mps 735 mmHg 24%
    08:00 +10°C° 0 mm 3 mps 735 mmHg 25%
    09:00 +13°C° 0 mm 3 mps 735 mmHg 22%
    10:00 +16°C° 0 mm 3 mps 735 mmHg 19%
    11:00 +18°C° 0 mm 3 mps 735 mmHg 16%
    12:00 +20°C° 0 mm 3 mps 734 mmHg 14%
    13:00 +21°C° 0 mm 3 mps 733 mmHg 12%
    14:00 +22°C° 0 mm 3 mps 733 mmHg 10%
    15:00 +22°C° 0 mm 3 mps 732 mmHg 11%
    16:00 +23°C° 0 mm 2 mps 732 mmHg 12%
    17:00 +23°C° 0 mm 2 mps 732 mmHg 12%
    18:00 +20°C° 0 mm 2 mps 732 mmHg 13%
    19:00 +19°C° 0 mm 2 mps 732 mmHg 15%
    20:00 +18°C° 0 mm 1 mps 732 mmHg 16%
    21:00 +16°C° 0 mm 2 mps 732 mmHg 16%
    22:00 +16°C° 0 mm 2 mps 732 mmHg 17%
    23:00 +15°C° 0 mm 2 mps 732 mmHg 17%

    25 January, Thursday

    Time Temperature Precipitation Wind Pressure Humidity
    00:00 +15°C° 0 mm 2 mps 732 mmHg 18%
    01:00 +14°C° 0 mm 2 mps 731 mmHg 18%
    02:00 +14°C° 0 mm 2 mps 731 mmHg 19%
    03:00 +13°C° 0 mm 2 mps 730 mmHg 20%
    04:00 +13°C° 0 mm 2 mps 730 mmHg 21%
    05:00 +12°C° 0 mm 2 mps 730 mmHg 22%
    06:00 +12°C° 0 mm 2 mps 730 mmHg 23%
    07:00 +12°C° 0 mm 2 mps 730 mmHg 24%
    08:00 +12°C° 0 mm 2 mps 730 mmHg 25%
    09:00 +14°C° 0 mm 2 mps 730 mmHg 22%
    10:00 +16°C° 0 mm 3 mps 730 mmHg 20%
    11:00 +18°C° 0 mm 3 mps 730 mmHg 17%
    12:00 +20°C° 0 mm 4 mps 729 mmHg 16%
    13:00 +21°C° 0 mm 4 mps 729 mmHg 14%
    14:00 +22°C° 0 mm 5 mps 728 mmHg 13%
    15:00 +22°C° 0 mm 5 mps 728 mmHg 13%
    16:00 +21°C° 0 mm 6 mps 728 mmHg 14%
    17:00 +21°C° 0 mm 6 mps 728 mmHg 14%
    18:00 +19°C° 0 mm 6 mps 728 mmHg 20%
    19:00 +17°C° 0 mm 5 mps 729 mmHg 27%
    20:00 +15°C° 0 mm 4 mps 729 mmHg 33%
    21:00 +15°C° 0 mm 4 mps 729 mmHg 36%
    22:00 +14°C° 0 mm 3 mps 730 mmHg 38%
    23:00 +14°C° 0 mm 2 mps 730 mmHg 41%

    26 January, Friday

    Time Temperature Precipitation Wind Pressure Humidity
    00:00 +13°C° 0 mm 2 mps 730 mmHg 41%
    01:00 +13°C° 0 mm 2 mps 730 mmHg 40%
    02:00 +12°C° 0 mm 1 mps 730 mmHg 40%
    03:00 +12°C° 0 mm 1 mps 730 mmHg 39%
    04:00 +12°C° 0 mm 1 mps 731 mmHg 39%
    05:00 +11°C° 0 mm 1 mps 731 mmHg 38%
    06:00 +11°C° 0 mm 1 mps 732 mmHg 38%
    07:00 +11°C° 0 mm 1 mps 732 mmHg 39%
    08:00 +9°C° 0 mm 2 mps 733 mmHg 39%
    09:00 +12°C° 0 mm 2 mps 733 mmHg 34%
    10:00 +14°C° 0 mm 1 mps 733 mmHg 29%
    11:00 +16°C° 0 mm 1 mps 733 mmHg 24%
    12:00 +17°C° 0 mm 2 mps 733 mmHg 21%
    13:00 +18°C° 0 mm 2 mps 732 mmHg 19%
    14:00 +18°C° 0 mm 2 mps 732 mmHg 16%
    15:00 +19°C° 0 mm 2 mps 732 mmHg 14%
    16:00 +19°C° 0 mm 2 mps 732 mmHg 13%
    17:00 +19°C° 0 mm 3 mps 732 mmHg 12%
    18:00 +17°C° 0 mm 2 mps 733 mmHg 13%
    19:00 +16°C° 0 mm 2 mps 733 mmHg 14%
    20:00 +15°C° 0 mm 2 mps 734 mmHg 15%
    21:00 +14°C° 0 mm 2 mps 734 mmHg 15%
    22:00 +12°C° 0 mm 3 mps 735 mmHg 16%
    23:00 +12°C° 0 mm 3 mps 735 mmHg 16%

    27 January, Saturday

    Time Temperature Precipitation Wind Pressure Humidity
    00:00 +11°C° 0 mm 3 mps 735 mmHg 17%
    01:00 +11°C° 0 mm 3 mps 735 mmHg 17%
    02:00 +10°C° 0 mm 3 mps 736 mmHg 18%
    03:00 +10°C° 0 mm 3 mps 736 mmHg 18%
    04:00 +9°C° 0 mm 3 mps 736 mmHg 19%
    05:00 +9°C° 0 mm 3 mps 736 mmHg 19%
    06:00 +9°C° 0 mm 3 mps 737 mmHg 18%
    07:00 +9°C° 0 mm 3 mps 737 mmHg 18%
    08:00 +9°C° 0 mm 3 mps 738 mmHg 18%
    09:00 +11°C° 0 mm 3 mps 738 mmHg 15%
    10:00 +13°C° 0 mm 3 mps 738 mmHg 12%
    11:00 +17°C° 0 mm 3 mps 738 mmHg 10%
    12:00 +18°C° 0 mm 3 mps 737 mmHg 9%
    13:00 +20°C° 0 mm 3 mps 737 mmHg 8%
    14:00 +21°C° 0 mm 3 mps 736 mmHg 7%
    15:00 +21°C° 0 mm 2 mps 736 mmHg 8%
    16:00 +21°C° 0 mm 2 mps 736 mmHg 10%
    17:00 +21°C° 0 mm 2 mps 736 mmHg 11%
    18:00 +20°C° 0 mm 2 mps 737 mmHg 12%
    19:00 +18°C° 0 mm 3 mps 737 mmHg 12%
    20:00 +17°C° 0 mm 4 mps 738 mmHg 13%
    21:00 +15°C° 0 mm 4 mps 738 mmHg 13%
    22:00 +14°C° 0 mm 4 mps 738 mmHg 14%
    23:00 +13°C° 0 mm 5 mps 738 mmHg 14%
    Show more